Guam Agana, GU

11:41 AM ChST on December 10, 2019 (GMT +1000)
Guam International

Weather History for PGUM - August, 2019

Change the Weather History Date:

Monday, August 26, 2019

  Actual Average Record
Temperature  
Mean Temperature 78 °F -  
Max Temperature 82 °F 84 °F 91 °F (2006)
Min Temperature 75 °F 75 °F 73 °F (2004)
Cooling Degree Days 14    
Growing Degree Days 28 (Base 50)    
Moisture  
Dew Point 75 °F    
Average Humidity 89    
Maximum Humidity 94    
Minimum Humidity 79    
Precipitation  
Precipitation 2.54 in - - ()
Sea Level Pressure  
Sea Level Pressure 29.83 in    
Wind  
Wind Speed 5 mph ()    
Max Wind Speed 13 mph    
Max Gust Speed -    
Visibility 6.6 miles    
Events Fog , Rain    
Averages and records for this station are not official NWS values.
T = Trace of Precipitation, MM = Missing Value Source: Averaged Metar Reports

Daily Weather History Graph

Daily Weather History Graph

Search for Another Location

Airport or City:

Astronomy

Aug. 26, 2019 Rise Set
Actual Time 6:09 AM ChST 6:36 PM ChST
Civil Twilight 5:47 AM ChST 6:58 PM ChST
Nautical Twilight 5:22 AM ChST 7:23 PM ChST
Astronomical Twilight 4:56 AM ChST 7:48 PM ChST
Moon 1:31 AM ChST (8/26) 2:45 PM ChST (8/26)
Length of Visible Light 13h 10m
Length of Day
12h 27m
Waning Crescent, 25% of the Moon is Illuminated
Aug 26
Waning Crescent
Aug 30
New
Sep 6
First Quarter
Sep 14
Full
Sep 22
Last Quarter

Hourly Weather History & Observations

Time (ChST) Temp. Heat Index Dew Point Humidity Pressure Visibility Wind Dir Wind Speed Gust Speed Precip Events Conditions
12:54 AM 81.0 °F 86.7 °F 75.0 °F 82% 29.83 in 10.0 mi SE 4.6 mph - N/A   Clear
1:54 AM 81.0 °F 87.3 °F 75.9 °F 85% 29.80 in 10.0 mi South 8.1 mph - N/A   Mostly Cloudy
2:08 AM 79.0 °F - 75.0 °F 88% 29.82 in 10.0 mi South 5.8 mph - N/A   Overcast
2:54 AM 79.0 °F - 75.0 °F 88% 29.79 in 10.0 mi SE 5.8 mph - N/A   Clear
3:54 AM 79.0 °F - 75.0 °F 88% 29.78 in 10.0 mi ESE 3.5 mph - N/A   Clear
4:54 AM 79.0 °F - 75.9 °F 90% 29.79 in 10.0 mi SSE 3.5 mph - N/A   Clear
5:18 AM 79.0 °F - 75.9 °F 90% 29.82 in 3.0 mi East 11.5 mph - 0.00 in Rain Light Rain
5:27 AM 79.0 °F - 75.0 °F 88% 29.83 in 3.0 mi East 6.9 mph - 0.06 in Rain Light Rain
5:54 AM 78.1 °F - 75.0 °F 90% 29.81 in 10.0 mi ESE 5.8 mph - 0.06 in   Mostly Cloudy
6:54 AM 79.0 °F - 75.0 °F 88% 29.82 in 10.0 mi ESE 6.9 mph - N/A   Partly Cloudy
7:54 AM 82.0 °F 91.0 °F 78.1 °F 88% 29.84 in 10.0 mi ESE 8.1 mph - N/A   Overcast
8:54 AM 82.9 °F 90.8 °F 75.9 °F 79% 29.84 in 10.0 mi ESE 8.1 mph - N/A   Partly Cloudy
9:19 AM 82.9 °F 92.8 °F 78.1 °F 85% 29.86 in 10.0 mi SE 10.4 mph - N/A   Mostly Cloudy
9:54 AM 82.0 °F 89.4 °F 75.9 °F 82% 29.84 in 10.0 mi South 12.7 mph - 0.00 in   Scattered Clouds
10:30 AM 81.0 °F 87.9 °F 77.0 °F 88% 29.87 in 5.0 mi South 6.9 mph - 0.00 in Rain Light Rain
10:40 AM 80.1 °F 85.8 °F 77.0 °F 90% 29.87 in 1.8 mi South 9.2 mph - 0.00 in Rain Light Rain
10:45 AM 79.0 °F - 75.9 °F 90% 29.87 in 0.5 mi SSW 6.9 mph - 0.11 in Fog , Rain Heavy Rain
10:54 AM 78.1 °F - 75.0 °F 90% 29.85 in 1.5 mi SSW 5.8 mph - 0.17 in Rain Light Rain
10:56 AM 78.1 °F - 75.0 °F 90% 29.87 in 3.0 mi SW 4.6 mph - 0.01 in Rain Light Rain
11:03 AM 78.1 °F - 75.0 °F 90% 29.87 in 5.0 mi WSW 5.8 mph - 0.01 in Rain Light Rain
11:08 AM 78.1 °F - 75.0 °F 90% 29.87 in 1.8 mi SSW 3.5 mph - 0.02 in Rain Rain
11:27 AM 78.1 °F - 75.0 °F 90% 29.86 in 3.0 mi West 4.6 mph - 0.07 in Rain Light Rain
11:36 AM 78.1 °F - 75.0 °F 90% 29.85 in 1.8 mi SW 8.1 mph - 0.08 in Rain Rain
11:54 AM 78.1 °F - 75.0 °F 90% 29.83 in 0.8 mi WNW 3.5 mph - 0.21 in Rain Heavy Rain
12:12 PM 77.0 °F - 75.0 °F 94% 29.83 in 2.5 mi NW 9.2 mph - 0.39 in Rain Light Rain
12:19 PM 78.1 °F - 75.0 °F 90% 29.84 in 10.0 mi North 4.6 mph - 0.39 in Rain Light Rain
12:22 PM 78.1 °F - 75.0 °F 90% 29.84 in 2.5 mi ENE 6.9 mph - 0.39 in Rain Light Rain
12:31 PM 75.9 °F - 73.0 °F 91% 29.83 in 5.0 mi North 5.8 mph - 0.40 in Rain Light Rain
12:50 PM 78.8 °F - 73.4 °F 83% 29.83 in 10.0 mi North 5.8 mph - 0.41 in   Overcast
12:54 PM 78.1 °F - 75.0 °F 90% 29.81 in 4.0 mi North 5.8 mph - 0.41 in Rain Light Rain
1:00 PM 77.0 °F - 73.9 °F 90% 29.83 in 1.8 mi NNE 8.1 mph - 0.02 in Rain Heavy Rain
1:17 PM 75.9 °F - 73.9 °F 94% 29.84 in 0.5 mi Calm Calm - 0.20 in Fog , Rain Heavy Rain
1:45 PM 75.9 °F - 73.9 °F 94% 29.82 in 2.0 mi North 5.8 mph - 1.08 in Rain Light Rain
1:54 PM 77.0 °F - 73.9 °F 90% 29.80 in 1.5 mi NE 6.9 mph - 1.10 in Rain Rain
2:02 PM 75.9 °F - 73.9 °F 94% 29.82 in 3.0 mi NNE 6.9 mph - 0.01 in Rain Light Rain
2:14 PM 75.9 °F - 73.9 °F 94% 29.83 in 1.8 mi SE 6.9 mph - 0.01 in Rain Light Rain
2:16 PM 77.0 °F - 73.4 °F 89% 29.83 in 0.8 mi SE 6.9 mph - 0.05 in Rain Heavy Rain
2:43 PM 77.0 °F - 73.9 °F 90% 29.79 in 6.0 mi Calm Calm - 0.58 in Rain Light Rain
2:51 PM 77.0 °F - 73.4 °F 89% 29.79 in 8.0 mi Calm Calm - 0.58 in Rain Light Rain
2:54 PM 77.0 °F - 73.9 °F 90% 29.77 in 8.0 mi Calm Calm - 0.58 in Rain Light Rain
3:54 PM 79.0 °F - 75.0 °F 88% 29.77 in 10.0 mi SE 3.5 mph - 0.01 in   Clear
4:54 PM 79.0 °F - 73.9 °F 84% 29.78 in 10.0 mi Calm Calm - N/A   Partly Cloudy
5:54 PM 79.0 °F - 75.0 °F 88% 29.78 in 10.0 mi SE 3.5 mph - N/A   Clear
6:54 PM 79.0 °F - 75.0 °F 88% 29.80 in 10.0 mi SSE 3.5 mph - N/A   Partly Cloudy
7:54 PM 79.0 °F - 75.9 °F 90% 29.81 in 10.0 mi ESE 3.5 mph - 0.00 in   Mostly Cloudy
8:13 PM 79.0 °F - 75.9 °F 90% 29.84 in 10.0 mi SE 3.5 mph - N/A   Scattered Clouds
8:54 PM 79.0 °F - 75.9 °F 90% 29.84 in 10.0 mi SSE 3.5 mph - N/A   Clear
9:54 PM 79.0 °F - 75.9 °F 90% 29.86 in 10.0 mi SSE 3.5 mph - N/A   Mostly Cloudy
10:05 PM 79.0 °F - 75.9 °F 90% 29.88 in 10.0 mi SSE 3.5 mph - N/A   Mostly Cloudy
10:54 PM 79.0 °F - 75.0 °F 88% 29.86 in 10.0 mi SSE 3.5 mph - N/A   Partly Cloudy
11:19 PM 79.0 °F - 75.0 °F 88% 29.87 in 10.0 mi Calm Calm - N/A   Mostly Cloudy
11:45 PM 79.0 °F - 75.0 °F 88% 29.86 in 10.0 mi Calm Calm - N/A   Scattered Clouds
11:54 PM 79.0 °F - 75.0 °F 88% 29.84 in 10.0 mi Calm Calm - N/A   Partly Cloudy